Regional Weather Roundup
Issued by NWS Little Rock, AR

Home | Current Version | Previous Version | Text Only | Print | Product List | Glossary On
Versions: 1 2 3 4 5 6 7 8 9 10 11 12 13 14 15 16 17 18 19 20 21 22 23 24 25 26 27 28 29 30 31 32 33 34 35 36 37 38 39 40 41 42 43 44 45 46 47 48 49 50
000
ASUS44 KLZK 042305
RWRLZK

WEATHER ROUNDUP FOR ARKANSAS
NATIONAL WEATHER SERVICE LITTLE ROCK AR
600 PM CDT WED MAY 04 2016

NOTE: "FAIR" INDICATES FEW OR NO CLOUDS BELOW 12,000 FEET WITH NO
SIGNIFICANT WEATHER AND/OR OBSTRUCTIONS TO VISIBILITY.

ARZ001-003-010-029-050000-
NORTHWEST ARKANSAS

CITY           SKY/WX    TMP DP  RH WIND       PRES   REMARKS
FAYETTEVILLE   SUNNY     70  40  33 NW15G23   29.94R
FORT SMITH     SUNNY     79  35  20 NW10      29.91R
HARRISON       SUNNY     70  35  27 N9G23     29.92R
BENTONVILLE    SUNNY     72  34  25 NW12      29.96S
ROGERS         SUNNY     69  37  30 N9        29.96R
SILOAM SPGS    SUNNY     70  39  32 N15       29.97R
HIGHFILL       SUNNY     72  39  30 N15       29.95R
SPRINGDALE     SUNNY     72  36  26 NW14G20   29.96R
$$

ARZ004-005-016-050000-
NORTH CENTRAL ARKANSAS

CITY           SKY/WX    TMP DP  RH WIND       PRES   REMARKS
BATESVILLE     MOSUNNY   75  39  27 NW7       29.83R
FLIPPIN        MOSUNNY  N/A N/A N/A N12G18    29.85S
MTN HOME       SUNNY     72  37  28 NW7G20    29.87R
$$

ARZ040-041-050000-
WEST CENTRAL ARKANSAS

CITY           SKY/WX    TMP DP  RH WIND       PRES   REMARKS
MENA           SUNNY     77  45  31 NW21G26   29.91R
MOUNT IDA      SUNNY     78  43  28 VRB7G20   29.86R
$$

ARZ009-017-025-026-028-050000-
NORTHEAST ARKANSAS

CITY           SKY/WX    TMP DP  RH WIND       PRES   REMARKS
CORNING          N/A     75  41  29 N15G23    29.81R
JONESBORO      LGT RAIN  75  40  28 NW13G23   29.79R
NEWPORT        MOSUNNY   74  41  30 N17       29.82R
WALNUT RIDGE   SUNNY     73  39  29 NW18      29.81R
BLYTHEVILLE    MOSUNNY   73  46  38 N21G28    29.79R
$$

ARZ022-023-033-042-044-050000-
CENTRAL ARKANSAS

CITY           SKY/WX    TMP DP  RH WIND       PRES   REMARKS
LITTLE ROCK    MOSUNNY   81  39  22 NW15G24   29.82R
N LITTLE ROCK    N/A     76  38  25 N9G20     29.82R
JACKSONVILLE   SUNNY     78  40  26 NW12G17   29.82R
SEARCY         SUNNY     77  42  28 NW13      29.83R
HOT SPRINGS    PTSUNNY   79  45  29 N13G22    29.85S
RUSSELLVILLE   SUNNY     78  35  21 NW14G22   29.85R
CLINTON        FAIR      75  39  27 NW10G16   29.86R
$$

ARZ036-050000-
EAST ARKANSAS

CITY           SKY/WX    TMP DP  RH WIND       PRES   REMARKS
WEST MEMPHIS   MOSUNNY   74  46  36 N10G18    29.78R
$$

ARZ050-053-066-070-073-050000-
SOUTHWEST ARKANSAS

CITY           SKY/WX    TMP DP  RH WIND       PRES   REMARKS
ARKADELPHIA    FAIR      81  55  40 NW8       29.84S
CAMDEN         SUNNY     81  52  36 W6        29.83F
TEXARKANA      SUNNY     80  52  37 NW14      29.87F
EL DORADO      SUNNY     79  53  40 W8        29.85F
DE QUEEN       MOSUNNY   80  52  37 NW15      29.86S
$$

ARZ056-057-069-050000-
SOUTHEAST ARKANSAS

CITY           SKY/WX    TMP DP  RH WIND       PRES   REMARKS
PINE BLUFF     MOSUNNY   78  47  33 NW16G25   29.81S
STUTTGART      MOSUNNY   75  46  35 NW17      29.81R
MONTICELLO     SUNNY     79  54  41 W10       29.81F

$$





USA.gov is the U.S. government's official web portal to all federal, state and local government web resources and services.